Weather Roundup
Issued by NWS Springfield, MO

Home | Current Version | Previous Version | Text Only | Print | Product List | Glossary On
Versions: 1 2 3 4 5 6 7 8 9 10 11 12 13 14 15 16 17 18 19 20 21 22 23 24 25 26 27 28 29 30 31 32 33 34 35 36 37 38 39 40 41 42 43 44 45 46 47 48 49 50
000
NZUS99 KSGF 281107
HRRSGF

HOURLY WEATHER
NATIONAL WEATHER SERVICE SPRINGFIELD MO
600 AM CDT SAT MAR 28 2015

......SGF CWA......

CITY           SKY/WX    TMP DP  RH WIND       PRES   REMARKS
SPRINGFIELD    CLOUDY    39  23  52 SE8       30.11R WCI  33
JOPLIN         CLOUDY    41  28  60 SE6       30.09S
WEST PLAINS    CLOUDY    35  23  61 SE5       30.17R WCI  31
ROLLA          CLOUDY    31  22  69 E9        30.15R WCI  23
OSAGE BEACH    CLOUDY    36  28  75 S3        30.17R
BRANSON        CLOUDY    37  27  65 CALM      30.12S

......SURROUNDING SGF CWA......

CITY           SKY/WX    TMP DP  RH WIND       PRES   REMARKS
CHANUTE        CLOUDY    41  29  62 SE8       30.05F
PARSONS        CLOUDY    42  35  76 VRB3      30.07R
COFFEYVILLE    CLOUDY    42  34  73 SE5       30.06R
EMPORIA        MOCLDY    38  27  64 E8        30.02R WCI  32
GROVE OK       CLOUDY    43  32  65 E5        30.09S
ROGERS AR      CLOUDY    41  28  60 E3        30.10R
SILOAM SPRINGS CLOUDY    41  28  60 CALM      30.09S
HARRISON AR    CLOUDY    39  25  57 SE6       30.11R WCI  35
NEAR YELLVILLE CLOUDY    37  27  65 E6        30.15R WCI  33

......KANSAS AND MISSOURI......

CITY           SKY/WX    TMP DP  RH WIND       PRES   REMARKS
KANSAS CTY INT CLOUDY    36  27  69 E13       30.11R WCI  27
DOWNTOWN KC    CLOUDY    40  25  55 E8        30.12R WCI  34
COLUMBIA       CLOUDY    32  22  66 E6        30.18R WCI  26
SEDALIA        CLOUDY    35  30  82 SE5       30.17R WCI  31
ST JOSEPH      CLOUDY    36  27  69 E9        30.14R WCI  29
ST LOUIS       MOCLDY    30  17  58 E7        30.23R WCI  23
SPIRIT OF STL  PTCLDY    26  21  81 CALM      30.23R
KIRKSVILLE     CLOUDY    30  19  63 E7        30.20R WCI  23
WICHITA        PTCLDY    41  31  67 SE9       29.99S
TOPEKA         CLOUDY    40  25  55 E10       30.08S WCI  33
OLATHE         CLOUDY    38  25  59 E10       30.10R WCI  31

......TENNESSEE......

CITY           SKY/WX    TMP DP  RH WIND       PRES   REMARKS
MEMPHIS        CLOUDY    37  21  52 SE5       30.22R WCI  33
NASHVILLE      CLEAR     28  18  66 N7        30.19R WCI  21

......ARKANSAS.......

CITY           SKY/WX    TMP DP  RH WIND       PRES   REMARKS
FAYETTEVILLE   CLOUDY    42  31  64 S6        30.07F
FT SMITH       CLOUDY    45  34  65 E5        30.10F
LITTLE ROCK    MOCLDY    42  35  76 CALM      30.18R

......OKLAHOMA.......

CITY           SKY/WX    TMP DP  RH WIND       PRES   REMARKS
TULSA          CLOUDY    46  33  60 SE8       30.07R
PONCA CITY     MOCLDY    45  33  63 SE9       30.02S
MCALESTER      PTCLDY    46  32  58 SW5       30.07R
OKLAHOMA CITY  MOCLDY    47  37  68 S12       30.02R

......IOWA............

CITY           SKY/WX    TMP DP  RH WIND       PRES   REMARKS
DES MOINES     CLOUDY    32  12  43 E7        30.18R WCI  26
QUAD CITIES    PTCLDY    17  12  80 E6        30.26R WCI   9

......ILLINOIS........

CITY           SKY/WX    TMP DP  RH WIND       PRES   REMARKS
QUINCY         PTCLDY    26  16  65 E7        30.22R WCI  18
CHICAGO        CLEAR     20  13  74 N6        30.25R WCI  12



USA.gov is the U.S. government's official web portal to all federal, state and local government web resources and services.